W5HRH Weather Reports


Display with metric or nautical units.
time (UTC)temp
F
wind
direction
speed
MPH
gust
MPH
rain 1hr
in
rain 24hr
in
rain mn
in
humidity
%
barometer
mb
20260506143025 79 132 1.0 8.0 0.00 0.00 0.00 90 1011.3
20260506142524 79 200 2.0 8.0 0.00 0.00 0.00 90 1011.2
20260506142023 78 211 2.0 7.0 0.00 0.00 0.00 90 1011.3
20260506141523 78 167 3.0 9.0 0.00 0.00 0.00 90 1011.3
20260506141023 78 167 2.0 7.0 0.00 0.00 0.00 91 1011.4
20260506140525 78 151 2.0 9.0 0.00 0.00 0.00 92 1011.4
20260506140027 78 124 2.0 9.0 0.00 0.00 0.00 92 1011.4
20260506135521 78 125 1.0 8.0 0.00 0.00 0.00 93 1011.4
20260506135020 77 178 3.0 8.0 0.00 0.00 0.00 93 1011.4
20260506134520 77 173 2.0 7.0 0.00 0.00 0.00 93 1011.5
20260506134019 77 150 0.0 5.0 0.00 0.00 0.00 93 1011.4
20260506133518 77 155 0.0 5.0 0.00 0.00 0.00 93 1011.5
20260506133038 77 186 2.0 4.0 0.00 0.00 0.00 93 1011.5
20260506132519 77 153 0.0 4.0 0.00 0.00 0.00 94 1011.7
20260506132018 76 172 1.0 7.0 0.00 0.00 0.00 94 1011.6
20260506131523 76 171 3.0 7.0 0.00 0.00 0.00 94 1011.6
20260506131018 76 159 1.0 4.0 0.00 0.00 0.00 94 1011.6
20260506130518 76 168 1.0 4.0 0.00 0.00 0.00 94 1011.7
20260506130020 76 115 0.0 5.0 0.00 0.00 0.00 94 1011.8
20260506125517 76 151 1.0 6.0 0.00 0.00 0.00 94 1011.7
20260506125018 76 130 2.0 7.0 0.00 0.00 0.00 94 1011.5
20260506124516 76 166 2.0 7.0 0.00 0.00 0.00 94 1011.7
20260506124015 76 142 1.0 5.0 0.00 0.00 0.00 94 1011.5
20260506123515 76 179 2.0 5.0 0.00 0.00 0.00 94 1011.6
20260506123014 76 159 1.0 8.0 0.00 0.00 0.00 94 1011.5
20260506122514 76 196 3.0 8.0 0.00 0.00 0.00 94 1011.4
20260506122013 76 161 2.0 5.0 0.00 0.00 0.00 94 1011.4
20260506121513 76 184 0.0 5.0 0.00 0.00 0.00 94 1011.3
20260506121017 76 144 2.0 5.0 0.00 0.00 0.00 94 1011.3
20260506120513 76 178 2.0 3.0 0.00 0.00 0.00 94 1011.2
20260506120018 76 163 0.0 5.0 0.00 0.00 0.00 94 1011.1
20260506115516 76 178 1.0 4.0 0.00 0.00 0.00 94 1011.1
20260506115013 76 175 2.0 6.0 0.00 0.00 0.00 94 1011.0
20260506114511 76 171 2.0 6.0 0.00 0.00 0.00 94 1010.9
20260506114013 75 188 2.0 5.0 0.00 0.00 0.00 94 1010.7
20260506113511 75 173 1.0 6.0 0.00 0.00 0.00 94 1010.8
20260506113011 75 173 1.0 8.0 0.00 0.00 0.00 94 1010.8
20260506112510 75 167 2.0 8.0 0.00 0.00 0.00 94 1010.5
20260506112011 75 133 2.0 5.0 0.00 0.00 0.00 94 1010.5
20260506111510 75 173 2.0 5.0 0.00 0.00 0.00 94 1010.5
20260506111010 75 169 1.0 3.0 0.00 0.00 0.00 94 1010.4
20260506110516 75 174 1.0 4.0 0.00 0.00 0.00 94 1010.3
20260506110012 75 168 0.0 4.0 0.00 0.00 0.00 94 1010.2
20260506105511 75 144 0.0 4.0 0.00 0.00 0.00 94 1010.3
20260506105010 75 175 1.0 5.0 0.00 0.00 0.00 94 1010.2
20260506104508 75 188 2.0 6.0 0.00 0.00 0.00 94 1010.2
20260506104009 75 169 1.0 6.0 0.00 0.00 0.00 94 1010.3
20260506103508 75 200 1.0 7.0 0.00 0.00 0.00 94 1010.3
20260506103008 75 144 2.0 6.0 0.00 0.00 0.00 94 1010.3
20260506102509 75 179 2.0 8.0 0.00 0.00 0.00 94 1010.3
20260506102009 75 172 5.0 8.0 0.00 0.00 0.00 94 1010.3
20260506101508 75 165 5.0 7.0 0.00 0.00 0.00 94 1010.3
20260506101010 75 187 4.0 9.0 0.00 0.00 0.00 94 1010.1
20260506100507 75 169 4.0 8.0 0.00 0.00 0.00 94 1010.1
20260506100007 75 171 4.0 8.0 0.00 0.00 0.00 94 1010.2
20260506095506 75 179 3.0 7.0 0.00 0.00 0.00 93 1010.2
20260506095006 75 196 1.0 7.0 0.00 0.00 0.00 93 1010.0
20260506094504 76 185 1.0 6.0 0.00 0.00 0.00 93 1009.9
20260506094004 75 155 2.0 8.0 0.00 0.00 0.00 93 1009.7
20260506093505 76 167 3.0 8.0 0.00 0.00 0.00 93 1009.9
20260506093003 76 173 3.0 8.0 0.00 0.00 0.00 92 1009.9
20260506092507 76 183 2.0 6.0 0.00 0.00 0.00 92 1009.9
20260506092003 76 171 1.0 6.0 0.00 0.00 0.00 92 1009.9
20260506091501 76 156 1.0 7.0 0.00 0.00 0.00 92 1009.9
20260506091002 76 161 2.0 7.0 0.00 0.00 0.00 92 1010.1
20260506090500 76 149 2.0 9.0 0.00 0.00 0.00 92 1010.1
20260506085559 76 156 4.0 10.0 0.00 0.00 0.00 92 1010.2
20260506085059 76 164 4.0 10.0 0.00 0.00 0.00 91 1010.2
20260506084600 76 163 3.0 7.0 0.00 0.00 0.00 91 1010.2
20260506084058 76 157 2.0 9.0 0.00 0.00 0.00 91 1010.2
20260506083557 76 189 4.0 9.0 0.00 0.00 0.00 91 1010.3
20260506083100 76 176 4.0 8.0 0.00 0.00 0.00 92 1010.3
20260506082556 77 148 3.0 7.0 0.00 0.00 0.00 91 1010.3
20260506082057 77 144 3.0 6.0 0.00 0.00 0.00 91 1010.4
20260506081559 77 174 2.0 7.0 0.00 0.00 0.00 91 1010.5
20260506081056 77 121 0.0 6.0 0.00 0.00 0.00 91 1010.4
20260506080556 77 182 3.0 6.0 0.00 0.00 0.00 91 1010.5
20260506073052 77 169 4.0 8.0 0.00 0.00 0.00 91 1010.8
20260506072552 77 163 3.0 11.0 0.00 0.00 0.00 91 1010.7
20260506072052 77 141 3.0 11.0 0.00 0.00 0.00 91 1010.8
20260506071551 77 173 1.0 11.0 0.00 0.00 0.00 91 1010.8
20260506071050 77 178 2.0 8.0 0.00 0.00 0.00 91 1010.8
20260506070550 77 177 2.0 5.0 0.00 0.00 0.00 91 1010.8
20260506062047 77 173 4.0 10.0 0.00 0.00 0.00 90 1011.3
20260506061553 77 175 1.0 7.0 0.00 0.00 0.00 90 1011.3
20260506061050 77 178 1.0 7.0 0.00 0.00 0.00 90 1011.4
20260506060546 77 184 3.0 6.0 0.00 0.00 0.00 90 1011.2
20260506051044 77 179 4.0 8.0 0.00 0.00 0.00 90 1010.9
20260506050542 77 182 4.0 7.0 0.00 0.00 0.00 90 1011.2
20260506045044 77 128 2.0 7.0 0.00 0.00 0.00 90 1011.3
20260506044539 77 165 2.0 7.0 0.00 0.00 0.00 90 1011.2
20260506044039 77 188 2.0 6.0 0.00 0.00 0.00 90 1011.3
20260506043540 77 177 1.0 7.0 0.00 0.00 0.00 90 1011.3
20260506043039 77 180 2.0 8.0 0.00 0.00 0.00 89 1011.2
20260506042539 77 112 1.0 10.0 0.00 0.00 0.00 89 1011.0
20260506042039 77 144 3.0 10.0 0.00 0.00 0.00 89 1011.1
20260506041539 77 113 5.0 9.0 0.00 0.00 0.00 89 1010.9
20260506041038 78 188 2.0 6.0 0.00 0.00 0.00 89 1011.0
20260506040538 78 163 2.0 6.0 0.00 0.00 0.00 88 1011.1
20260506040041 78 190 1.0 11.0 0.00 0.00 0.00 88 1011.2
20260506035538 78 165 1.0 7.0 0.00 0.00 0.00 88 1011.2
20260506035038 78 180 3.0 9.0 0.00 0.00 0.00 88 1011.1
20260506034536 78 156 1.0 8.0 0.00 0.00 0.00 87 1011.0
20260506034036 78 168 5.0 8.0 0.00 0.00 0.00 87 1010.8
20260506033537 78 133 1.0 11.0 0.00 0.00 0.00 87 1010.7
20260506033040 78 159 4.0 11.0 0.00 0.00 0.00 87 1010.5
20260506032536 78 123 1.0 10.0 0.00 0.00 0.00 87 1010.5
20260506032036 78 158 1.0 11.0 0.00 0.00 0.00 87 1010.5
20260506031536 78 149 2.0 11.0 0.00 0.00 0.00 87 1010.4
20260506031038 78 198 2.0 6.0 0.00 0.00 0.00 87 1010.5
20260506030535 78 184 1.0 6.0 0.00 0.00 0.00 87 1010.5
20260506030036 78 148 1.0 8.0 0.00 0.00 0.00 86 1010.5
20260506025535 78 194 2.0 9.0 0.00 0.00 0.00 86 1010.3
20260506025036 78 164 3.0 9.0 0.00 0.00 0.00 86 1010.3
20260506024535 78 160 5.0 9.0 0.00 0.00 0.00 86 1010.3
20260506024036 78 142 1.0 9.0 0.00 0.00 0.00 85 1010.2
20260506023536 78 175 4.0 12.0 0.00 0.00 0.00 85 1010.1
20260506023046 79 163 3.0 12.0 0.00 0.00 0.00 85 1010.0
20260506022535 79 190 4.0 12.0 0.00 0.00 0.00 85 1010.0
20260506022034 79 243 4.0 13.0 0.00 0.00 0.00 85 1009.9
20260506021535 79 152 5.0 11.0 0.00 0.00 0.00 85 1009.8
20260506021036 79 178 3.0 8.0 0.00 0.00 0.00 85 1009.8
20260506020534 79 178 1.0 10.0 0.00 0.00 0.00 85 1009.7
20260506020034 79 149 2.0 12.0 0.00 0.00 0.00 84 1009.8
20260506015535 79 155 5.0 12.0 0.00 0.00 0.00 84 1009.7
20260506015034 79 175 4.0 8.0 0.00 0.00 0.00 84 1009.6
20260506014534 79 178 2.0 14.0 0.00 0.00 0.00 84 1009.4
20260506014032 79 180 6.0 11.0 0.00 0.00 0.00 84 1009.4
20260506013532 79 161 3.0 9.0 0.00 0.00 0.00 83 1009.4
20260506013032 79 172 2.0 8.0 0.00 0.00 0.00 83 1009.3
20260506012532 79 175 1.0 8.0 0.00 0.00 0.00 83 1009.1
20260506012032 79 171 2.0 10.0 0.00 0.00 0.00 83 1008.9
20260506011533 79 179 4.0 11.0 0.00 0.00 0.00 82 1008.9
20260506011031 79 186 5.0 10.0 0.00 0.00 0.00 82 1008.9
20260506010531 80 196 5.0 15.0 0.00 0.00 0.00 82 1008.8
20260506010045 80 175 5.0 15.0 0.00 0.00 0.00 82 1008.8
20260506005530 80 150 6.0 12.0 0.00 0.00 0.00 82 1008.8
20260506005030 80 176 3.0 8.0 0.00 0.00 0.00 82 1008.9
20260506004530 80 195 4.0 10.0 0.00 0.00 0.00 82 1008.9
20260506004029 80 175 4.0 10.0 0.00 0.00 0.00 81 1008.8
20260506003529 80 188 2.0 9.0 0.00 0.00 0.00 81 1008.8
20260506003029 80 162 2.0 9.0 0.00 0.00 0.00 81 1008.7
20260506002533 80 256 4.0 11.0 0.00 0.00 0.00 81 1008.7
20260506002029 80 157 4.0 11.0 0.00 0.00 0.00 81 1008.6
20260506001529 80 182 5.0 11.0 0.00 0.00 0.00 81 1008.6
20260506001030 80 167 5.0 11.0 0.00 0.00 0.00 80 1008.6
20260506000528 81 184 2.0 9.0 0.00 0.00 0.00 81 1008.6
20260506000028 81 188 3.0 9.0 0.00 0.00 0.00 80 1008.6
20260505235528 81 171 2.0 11.0 0.00 0.00 0.00 80 1008.4
20260505235029 81 168 3.0 11.0 0.00 0.00 0.00 80 1008.4
20260505234536 81 193 4.0 12.0 0.00 0.00 0.00 80 1008.3
20260505234026 81 146 4.0 11.0 0.00 0.00 0.00 80 1008.2
20260505233525 81 131 5.0 14.0 0.00 0.00 0.00 80 1008.4
20260505233032 81 198 3.0 9.0 0.00 0.00 0.00 80 1008.4
20260505232521 81 170 4.0 9.0 0.00 0.00 0.00 80 1008.5
20260505232020 81 178 3.0 10.0 0.00 0.00 0.00 80 1008.5
20260505231519 81 126 4.0 12.0 0.00 0.00 0.00 80 1008.5
20260505231017 81 138 4.0 12.0 0.00 0.00 0.00 80 1008.6
20260505230517 82 200 3.0 10.0 0.00 0.00 0.00 80 1008.4
20260505230017 82 167 5.0 12.0 0.00 0.00 0.00 79 1008.5
20260505225517 82 233 5.0 11.0 0.00 0.00 0.00 79 1008.5
20260505225017 82 167 4.0 9.0 0.00 0.00 0.00 79 1008.5
20260505224516 82 132 4.0 12.0 0.00 0.00 0.00 79 1008.5
20260505224016 82 159 3.0 13.0 0.00 0.00 0.00 79 1008.5
20260505223523 82 112 4.0 11.0 0.00 0.00 0.00 79 1008.5
20260505223015 82 179 4.0 13.0 0.00 0.00 0.00 79 1008.5
20260505222518 82 161 7.0 13.0 0.00 0.00 0.00 78 1008.6
20260505222017 83 198 2.0 10.0 0.00 0.00 0.00 78 1008.5
20260505221514 83 153 2.0 11.0 0.00 0.00 0.00 78 1008.6
20260505221020 83 138 5.0 11.0 0.00 0.00 0.00 77 1008.7
20260505220513 83 199 3.0 8.0 0.00 0.00 0.00 77 1008.6
20260505220013 83 193 2.0 12.0 0.00 0.00 0.00 77 1008.7
20260505215513 83 206 6.0 12.0 0.00 0.00 0.00 77 1008.7
20260505215012 83 174 6.0 12.0 0.00 0.00 0.00 77 1008.7
20260505214511 83 142 4.0 12.0 0.00 0.00 0.00 76 1008.8
20260505214014 83 215 3.0 10.0 0.00 0.00 0.00 76 1008.9
20260505213511 83 211 4.0 14.0 0.00 0.00 0.00 76 1009.0
20260505213011 83 200 4.0 15.0 0.00 0.00 0.00 76 1008.9
20260505212515 83 167 6.0 15.0 0.00 0.00 0.00 76 1009.0
20260505212012 83 181 3.0 11.0 0.00 0.00 0.00 76 1009.0
20260505211509 83 201 2.0 13.0 0.00 0.00 0.00 76 1009.0
20260505211009 83 203 7.0 15.0 0.00 0.00 0.00 76 1009.1
20260505210510 83 148 3.0 10.0 0.00 0.00 0.00 77 1009.2
20260505210008 83 186 3.0 8.0 0.00 0.00 0.00 78 1009.2
20260505205508 83 237 3.0 12.0 0.00 0.00 0.00 77 1009.2
20260505205009 83 189 6.0 12.0 0.00 0.00 0.00 77 1009.3
20260505204508 83 184 3.0 8.0 0.00 0.00 0.00 77 1009.4
20260505204010 83 229 3.0 7.0 0.00 0.00 0.00 77 1009.3
20260505203506 83 228 2.0 9.0 0.00 0.00 0.00 77 1009.2
20260505203015 83 206 3.0 14.0 0.00 0.00 0.00 78 1009.6
20260505202505 83 138 4.0 13.0 0.00 0.00 0.00 77 1009.7
20260505202004 83 182 5.0 13.0 0.00 0.00 0.00 77 1009.7
20260505201502 83 220 2.0 10.0 0.00 0.00 0.00 77 1010.0
20260505201004 83 198 3.0 10.0 0.00 0.00 0.00 77 1010.0
20260505200502 83 177 2.0 9.0 0.00 0.00 0.00 78 1010.0
20260505200002 83 186 4.0 11.0 0.00 0.00 0.00 78 1010.0
20260505195503 83 188 5.0 14.0 0.00 0.00 0.00 77 1010.2
20260505195100 83 213 2.0 14.0 0.00 0.00 0.00 78 1010.2
20260505194608 83 251 4.0 10.0 0.00 0.00 0.00 78 1010.3
20260505194059 83 189 5.0 11.0 0.00 0.00 0.00 78 1010.3
20260505193558 82 205 3.0 10.0 0.00 0.00 0.00 79 1010.4
20260505193059 82 196 2.0 9.0 0.00 0.00 0.00 79 1010.4
20260505192557 82 183 1.0 12.0 0.00 0.00 0.00 80 1010.5
20260505192056 82 180 5.0 12.0 0.00 0.00 0.00 80 1010.5
20260505191557 81 180 3.0 11.0 0.00 0.00 0.00 81 1010.6
20260505191056 81 230 4.0 9.0 0.00 0.00 0.00 80 1010.6
20260505190600 82 184 2.0 10.0 0.00 0.00 0.00 80 1010.6
20260505190055 82 207 5.0 10.0 0.00 0.00 0.00 79 1010.5
20260505185555 82 238 4.0 9.0 0.00 0.00 0.00 80 1010.6
20260505185054 81 174 1.0 14.0 0.00 0.00 0.00 81 1010.7
20260505184554 81 199 4.0 14.0 0.00 0.00 0.00 81 1010.7
20260505184053 81 193 1.0 9.0 0.00 0.00 0.00 81 1010.8
20260505183555 81 227 3.0 14.0 0.00 0.00 0.00 81 1010.7
20260505183054 80 163 2.0 7.0 0.00 0.00 0.00 81 1010.8
20260505182551 80 198 3.0 9.0 0.00 0.00 0.00 81 1010.8
20260505182052 81 189 3.0 10.0 0.00 0.00 0.00 81 1010.8
20260505181552 81 190 3.0 12.0 0.00 0.00 0.00 81 1010.8
20260505181051 81 174 2.0 14.0 0.00 0.00 0.00 82 1010.8
20260505180553 80 217 4.0 15.0 0.00 0.00 0.00 82 1010.9
20260505180104 80 180 3.0 8.0 0.00 0.00 0.00 82 1011.1
20260505175548 80 240 3.0 9.0 0.00 0.00 0.00 82 1011.1
20260505175048 80 184 4.0 14.0 0.00 0.00 0.00 82 1011.2
20260505174600 80 211 5.0 14.0 0.00 0.00 0.00 82 1011.2
20260505174049 80 227 1.0 15.0 0.00 0.00 0.00 82 1011.2
20260505173547 80 191 5.0 15.0 0.00 0.00 0.00 82 1011.3
20260505173047 80 194 2.0 6.0 0.00 0.00 0.00 83 1011.3
20260505172546 79 180 2.0 6.0 0.00 0.00 0.00 83 1011.4
20260505172045 79 198 2.0 6.0 0.00 0.00 0.00 83 1011.4
20260505171546 79 171 2.0 12.0 0.00 0.00 0.00 84 1011.3
20260505171048 79 188 1.0 12.0 0.00 0.00 0.00 83 1011.4
20260505170547 79 186 2.0 9.0 0.00 0.00 0.00 83 1011.4
20260505170044 79 192 3.0 12.0 0.00 0.00 0.00 84 1011.7
20260505165543 79 197 3.0 12.0 0.00 0.00 0.00 84 1011.7
20260505165046 79 184 1.0 9.0 0.00 0.00 0.00 85 1011.7
20260505164547 78 188 3.0 12.0 0.00 0.00 0.00 85 1011.6
20260505164043 78 184 3.0 12.0 0.00 0.00 0.00 85 1011.7
20260505163543 78 196 4.0 8.0 0.00 0.00 0.00 84 1011.7
20260505163041 78 169 2.0 9.0 0.00 0.00 0.00 84 1011.5
20260505162541 78 180 2.0 8.0 0.00 0.00 0.00 84 1011.5
20260505162041 78 192 2.0 6.0 0.00 0.00 0.00 84 1011.5
20260505161540 78 234 1.0 10.0 0.00 0.00 0.00 85 1011.4
20260505161042 78 190 4.0 10.0 0.00 0.00 0.00 84 1011.5
20260505160540 78 175 2.0 11.0 0.00 0.00 0.00 84 1011.3
20260505153036 77 196 4.0 9.0 0.00 0.00 0.00 86 1011.2
20260505152535 77 182 4.0 9.0 0.00 0.00 0.00 86 1011.1
20260505152035 77 198 1.0 8.0 0.00 0.00 0.00 86 1011.1
20260505151535 77 196 1.0 9.0 0.00 0.00 0.00 86 1011.1
20260505151035 77 180 1.0 9.0 0.00 0.00 0.00 86 1011.1
20260505150534 77 175 1.0 9.0 0.00 0.00 0.00 86 1011.1